www.pogodaiklimat.ru

Погода и климат >> Архив погоды >> Греция >> Карпатос


ПОГОДА в Карпатосе

  • Прогноз погоды в Карпатосе
  • Монитор погоды в Карпатосе

АРХИВ ПОГОДЫ в Карпатосе

Время (UTC), дата Ветер
(напр.,м/с)
 
Видим.   Явления Облачность Т
(С)
Тd
(С)
f
(%)
Тe
(С)
Тes
(С)
Комфортность P
(гПа)
Po
(гПа)
Тmin
(С)
Tmax
(С)
R
(мм)
R24
(мм)
S
(см)
12 16.07 СЗ 4
{7}
10 км 3/0
[Ac trans]
+28.0 +19.0 58 +33 +43 очень
душно
1004.9 1004.2
15 16.07 В 5
{7}
10 км 1/1 600 м
[Cu hum]
+27.4 +19.6 62 +33 +35 очень
душно
1003.4 1002.7
18 16.07 СВ 3
{6}
10 км 6/6 600 м
[Sc]
+25.8 +21.4 77 +33 +33 очень
душно
1003.3 1002.6 +28.1
21 16.07 СВ 4
{6}
н/о н/о +25.1 +22.4 85 +33 +33 очень
душно
1003.4 1001.5
00 17.07 нст 2
{4}
н/о в посл. час осадки н/о +24.4 +21.0 81 +31 +31 очень
душно
1002.2 1000.3 0.1
03 17.07
{4}
н/о н/о +24.1 +19.2 74 1001.2 999.3
06 17.07 СЗ 3
{6}
10 км слаб. дождь 9/8 540 м
[Cu Sc Ac As]
+24.6 +20.7 79 +31 +31 очень
душно
1002.0 1001.3 +23.0 0.2
09 17.07 З 6
{8}
10 км в посл. час дождь 5/5 480 м
[Cu Sc Ac lent]
+25.8 +21.5 77 +33 +37 очень
душно
1002.6 1001.9
12 17.07 СЗ 8
{13}
10 км {дождь} 5/5 600 м
[Cu med, cong]
+28.0 +20.3 63 +34 +36 очень
душно
1003.1 1002.4 1
15 17.07 СЗ 8
{13}
10 км 1/1 300 м
[Cu med, cong]
+27.2 +18.7 60 +32 +33 очень
душно
1003.1 1002.4
18 17.07 СЗ 6
{11}
10 км 1/1 600 м
[Cu med, cong]
+24.6 +19.6 74 +30 +30 очень
душно
1004.5 1003.8 +28.8 1
21 17.07 З 5
{11}
н/о н/о +24.2 +20.0 77 +30 +30 очень
душно
1005.8 1003.8
00 18.07 З 7
{14}
н/о н/о +23.9 +20.6 82 +30 +30 очень
душно
1004.9 1002.9
03 18.07 СЗ 9
{13}
10 км 1/1 600 м
[Cu hum]
+24.0 +17.4 67 +28 +28 душно 1005.3 1004.6
06 18.07 СЗ 13
{17}
10 км 1/1 600 м
[Cu hum]
+25.4 +18.2 64 +30 +30 душно 1005.8 1005.1 +23.7
09 18.07 СЗ 12
{19}
10 км 1/1 600 м
[Cu med, cong]
+27.2 +18.3 58 +32 +32 очень
душно
1007.3 1006.6
12 18.07 СЗ 13
{19}
10 км 1/1 600 м
[Cu med, cong]
+27.4 +18.2 57 +32 +32 очень
душно
1007.9 1007.2
15 18.07 СЗ 11
{17}
10 км ясно +26.6 +17.1 56 +31 +31 душно 1008.0 1007.3
18 18.07 СЗ 8
{16}
10 км ясно +24.4 +18.4 69 +29 +29 душно 1009.4 1008.7 +28.6
21 18.07 З 7
{13}
н/о н/о +23.9 +19.0 74 +29 +29 душно 1010.3 1008.3
00 19.07 З 9
{14}
н/о н/о +23.5 +19.8 80 +29 +29 душно 1009.5 1007.6
03 19.07 З 9
{13}
н/о н/о +23.8 +18.6 73 +28 +28 душно 1009.9 1008.0
06 19.07 СЗ 12
{15}
10 км 1/1 600 м
[Cu hum]
+26.0 +18.8 65 +31 +31 очень
душно
1010.2 1009.5 +23.4
09 19.07 СЗ 11
{16}
10 км 1/1 600 м
[Cu hum]
+27.8 +18.9 58 +33 +33 очень
душно
1011.3 1010.6
12 19.07 СЗ 10
{15}
10 км 1/1 600 м
[Cu hum]
+28.6 +18.5 54 +33 +34 очень
душно
1011.5 1010.8
15 19.07 СЗ 10
{15}
10 км 1/1 600 м
[Cu hum]
+27.4 +18.3 58 +32 +32 очень
душно
1011.1 1010.4
18 19.07 СЗ 7
{14}
10 км 3/0
[Ac lent]
+24.6 +19.8 75 +30 +30 очень
душно
1011.7 1011.0 +29.0
21 19.07 СЗ 6
{11}
10 км 1/1 600 м
[Cu hum]
+23.8 +19.8 78 +29 +29 душно 1012.3 1011.6
00 20.07 З 7
{10}
н/о н/о +23.3 +20.2 83 +31 +31 очень
душно
1011.3 1009.4
03 20.07 СЗ 9
{11}
10 км 1/1 600 м
[Cu hum]
+23.6 +20.0 80 +29 +29 душно 1011.0 1010.3
06 20.07 СЗ 11
{15}
10 км 1/1 300 м
[Cu hum]
+25.8 +20.2 71 +32 +32 очень
душно
1011.3 1010.6 +22.9
09 20.07 СЗ 12
{16}
10 км 1/1 300 м
[Cu hum]
+27.8 +20.3 64 +34 +34 очень
душно
1012.1 1011.4
12 20.07 СЗ 13
{17}
10 км 1/1 300 м
[Cu hum]
+28.0 +21.3 67 +35 +35 очень
душно
1012.0 1011.3
15 20.07 СЗ 13
{17}
10 км 1/1 300 м
[Cu hum]
+26.8 +21.1 71 +34 +34 очень
душно
1011.6 1010.9
18 20.07 СЗ 11
{16}
10 км 1/1 600 м
[Cu hum]
+24.6 +20.9 80 +31 +31 очень
душно
1011.9 1011.2 +29.0
21 20.07 З 11
{16}
н/о н/о +24.0 +21.1 84 +30 +30 очень
душно
1012.1 1010.2
00 21.07 З 13
{19}
н/о {осадки} н/о +24.0 +20.2 79 +30 +30 очень
душно
1010.8 1008.8 0.0
03 21.07 З 13
{19}
н/о н/о +24.1 +20.4 80 +30 +30 очень
душно
1009.8 1007.8
06 21.07 СЗ 14
{13}
10 км 1/1 300 м
[Sc diur, vesp]
+26.0 +20.9 74 +33 +33 очень
душно
1010.3 1009.6 +23.8
09 21.07 СЗ 15
{21}
10 км 1/1 300 м
[Cu hum]
+27.8 +21.4 68 +35 +35 очень
душно
1010.4 1009.7
12 21.07 СЗ 16
{22}
10 км 1/1 300 м
[Cu hum]
+27.8 +21.0 67 +35 +35 очень
душно
1009.9 1009.2
15 21.07 СЗ 15
{21}
10 км 1/1 300 м
[Cu hum]
+27.2 +20.5 67 +34 +34 очень
душно
1009.4 1008.7
18 21.07 СЗ 14
{21}
10 км ясно +24.8 +20.4 77 +31 +31 очень
душно
1009.9 1009.2 +28.7
21 21.07 З 12
{20}
н/о в посл. час осадки н/о +24.4 +20.7 80 +30 +30 очень
душно
1010.1 1008.2
00 22.07 З 13
{19}
н/о осадки н/о +24.2 +21.0 82 +30 +30 очень
душно
1009.2 1007.3 0.0
03 22.07 З 13
{19}
н/о {осадки} н/о +24.1 +20.2 79 +30 +30 очень
душно
1008.7 1006.8
06 22.07 СЗ 14
{20}
10 км 1/1 300 м
[Cu hum]
+25.8 +20.0 70 +32 +32 очень
душно
1009.0 1008.3 +24.0
09 22.07 СЗ 12
{20}
10 км ясно +28.0 +20.2 63 +34 +34 очень
душно
1009.5 1008.8
12 22.07 СЗ 15
{20}
10 км ясно +28.2 +18.2 55 +33 +33 очень
душно
1009.1 1008.4
15 22.07 СЗ 13
{20}
10 км ясно +27.6 +18.3 57 +32 +32 очень
душно
1008.4 1007.7
18 22.07 СЗ 11
{18}
10 км ясно +24.8 +20.7 78 +31 +31 очень
душно
1008.5 1007.8 +29.1
21 22.07 З 12
{17}
н/о осадки н/о +24.5 +21.2 82 +31 +31 очень
душно
1007.8 1005.9
00 23.07 СЗ 12
{18}
н/о осадки н/о +24.4 +21.0 81 +31 +31 очень
душно
1006.3 1004.4 0.0
03 23.07 З 11
{17}
н/о осадки н/о +24.1 +21.0 83 +30 +30 очень
душно
1006.2 1004.3
06 23.07 СЗ 11
{16}
10 км 1/1 300 м
[Cu hum]
+26.2 +21.1 74 +33 +33 очень
душно
1006.7 1006.0 +24.0

 

Местоположение метеостанции Карпатос (Греция): широта 35.52 долгота 27.25 высота над уровнем моря 6 м.

В архиве по умолчанию представлена погода в Карпатосе за последнюю неделю. Архивные данные за месяц целиком и за предыдущие месяцы, начиная с января 2011 года, Вы можете получить, выбрав интересующий диапазон дат из раскрывающегося списка и нажав кнопку "Ввод!".


*Определитесь, кто Вы:
робот инопланетянин человек

Внимание! Время в таблицах - всемирное. Для получения местного времени необходимо прибавить поправку, которая равна 2 ч.

Смотрите также архив погоды в соседних городах и на ближайших метеорологических станциях:

Погода в Касосе (Греция) (33 км)
Погода в Ситии (Греция) (110 км)
Погода на Родосе (Греция) (123 км)
Погода в Датче (Турция) (137 км)
Погода на Косе (Греция) (141 км)
Погода в Астипалее (Греция) (142 км)
Погода в Калимносе (Греция) (163 км)
Погода в Бодруме (Турция) (169 км)
Погода в Мармарисе (Турция) (174 км)
Погода в Кастели (Греция) (179 км)

Пояснения к столбцам:

Ветер - указаны скорость ветра в м/с - средняя за 10 мин, порывы в срок и между сроками (в фигурных скобках) и направление, откуда дует ветер: С - северный, СВ - северо-восточный, В - восточный, ЮВ - юго-восточный, Ю - южный, ЮЗ - юго-западный, З - западный, СЗ - северо-западный.
Видимость - горизонтальная дальность видимости в метрах или километрах. При видимости от 1 до 10 км при отсутствии осадков обычно наблюдается дымка, при ухудшении видимости до 1 км и менее - туман. В сухую погоду видимость может ухудшаться дымом, пылью или мглою.
Явления - указаны атмосферные явления, наблюдавшиеся в срок или в последний час перед сроком; фигурными скобками обозначены явления, наблюдавшиеся между сроками (за 1-3 часа до срока); квадратными скобками обозначены град или гололедные отложения с указанием их диаметра в мм.
Облачность - указаны через наклонную черту общая и нижняя облачность в баллах и высота нижней границы облаков в метрах; квадратными скобками обозначены формы облаков: Ci - перистые, Cs - перисто-слоистые, Cc - перисто-кучевые, Ac - высококучевые, As - высокослоистые, Sc - слоисто-кучевые, Ns - слоисто-дождевые, Cu - кучевые, Cb - кучево-дождевые. Подробнее классификацию облаков см. в Атласе облаков (PDF).
T - Температура воздуха - температура, измеренная на высоте 2 м над землей.
Td - Температура точки росы - температура, при понижении до которой содержащийся в воздухе водяной пар достигнет насыщения.
f - Относительная влажность воздуха - влажноcть воздуха, измеренная на высоте 2 м над землей.
Te - Эффективная температура - температура, которую ощущает одетый по сезону человек в тени. Характеристика душности погоды. При расчете учитывается влияние влажности воздуха и скорости ветра на теплоощущения человека.
Tes - Эффективная температура на солнце - температура, которую ощущает человек, с поправкой на солнечный нагрев. Характеристика знойности погоды. Зависит от высоты солнца над горизонтом, облачности и скорости ветра. Ночью, в пасмурную погоду, а также при ветре 12 м/с и более поправка равна нулю.
P - Атмосферное давление - приведенное к уровню моря атмосферное давление.
Po - Атмосферное давление - измеренное на уровне метеостанции атмосферное давление.
Tmin - Минимальная температура - минимум температуры воздуха на высоте 2 м над землей.
Tmax - Максимальная температура - максимум температуры воздуха на высоте 2 м над землей.
R - Количество осадков - Количество выпавших осадков за период времени, мм. При наведении курсора мыши на число - период времени, за который выпало указанное количество осадков.
R24 - Количество осадков - Количество выпавших осадков за 24 часа, мм.
S - Снежный покров - Высота снежного покрова, см. При наведении курсора мыши на число - состояние снежного покрова и степень покрытия местности в баллах.